Regional Weather Roundup
Issued by NWS

Home | Current Version | Previous Version | Text Only | Print | Product List | Glossary On
Versions: 1 2 3 4 5 6 7 8 9 10 11 12 13 14 15 16 17 18 19 20 21 22 23 24 25 26 27 28 29 30 31 32 33 34 35 36 37 38 39 40 41 42 43 44 45 46 47 48 49 50
000
ASUS43 KOAX 281210
RWRNE

WEATHER ROUNDUP FOR NEBRASKA
NATIONAL WEATHER SERVICE OMAHA NE
700 AM CDT THU AUG 28 2014

NOTES: SATELLITE DATA IS BEING USED TO AUGMENT CLOUD COVER ABOVE
       12000 FEET.
       "FAIR" INDICATES FEW OR NO CLOUDS BELOW 12,000 FEET WITH NO
       SIGNIFICANT WEATHER AND/OR OBSTRUCTIONS TO VISIBILITY.

  * THESE STATIONS DO NOT REPORT WEATHER SUCH AS RAIN...SNOW OR FOG.

NEZ001>004-019>022-054>056-281300-
NEBRASKA PANHANDLE

CITY           SKY/WX    TMP DP  RH WIND       PRES   REMARKS
SCOTTSBLUFF    PTCLDY    58  58 100 NW9       30.02F
6HR MIN TEMP:  58; 6HR MAX TEMP:  63;

ALLIANCE       CLOUDY    62  61  96 NW10      29.99F
6HR MIN TEMP:  61; 6HR MAX TEMP:  63;

CHADRON        CLOUDY    63  62  97 NW6       29.99S
6HR MIN TEMP:  63; 6HR MAX TEMP:  64; 6HR PCP:  0.04;

KIMBALL        PTCLDY    54  49  83 W9        30.06S
SIDNEY         PTCLDY    58  56  93 NW8       30.05R
6HR MIN TEMP:  58; 6HR MAX TEMP:  63; 6HR PCP:  0.04;

$$

NEZ057>060-069>072-079>082-281300-
SOUTHWEST NEBRASKA

CITY           SKY/WX    TMP DP  RH WIND       PRES   REMARKS
NORTH PLATTE   CLEAR     59  58  96 SW3       29.93S
6HR MIN TEMP:  59; 6HR MAX TEMP:  68; 6HR PCP:  0.22;

IMPERIAL       PTCLDY    60  58  92 W9        29.98R
6HR MIN TEMP:  59; 6HR MAX TEMP:  63; 6HR PCP:  0.09;

LEXINGTON      CLOUDY    67  66  97 SW7       29.93R
MCCOOK         MOCLDY    62  61  96 E5        29.94F
6HR MIN TEMP:  62; 6HR MAX TEMP:  66; 6HR PCP:  0.37;

OGALLALA       MOCLDY    58  57  99 W6        29.98S
$$

NEZ005>010-023>029-035>040-094-281300-
NORTH CENTRAL NEBRASKA

CITY           SKY/WX    TMP DP  RH WIND       PRES   REMARKS
VALENTINE      FOG       68  68 100 E8        29.90S VSB 3/4
6HR MIN TEMP:  68; 6HR MAX TEMP:  69;

AINSWORTH      MOCLDY    65  65 100 NE5       29.91S FOG
BROKEN BOW     MOCLDY    66  64  93 SW5       29.92S
6HR MIN TEMP:  65; 6HR MAX TEMP:  70; 6HR PCP:  0.54;

O`NEILL        CLOUDY    70  69  98 SE8       29.92S
ORD            MOCLDY    67  66  97 E8        29.88F
6HR MIN TEMP:  67; 6HR MAX TEMP:  71; 6HR PCP:  0.15;

THEDFORD       MOCLDY    64  61  91 SW6       29.95R
$$

NEZ041-046>049-061>064-073>077-083>087-281300-
SOUTH CENTRAL NEBRASKA

CITY           SKY/WX    TMP DP  RH WIND       PRES   REMARKS
GRAND ISLAND   LGT RAIN  67  65  93 E9        29.89F
6HR MIN TEMP:  67; 6HR MAX TEMP:  72; 6HR PCP:  0.76;

AURORA         PTCLDY    67  67 100 SE8       29.92F
HASTINGS       CLOUDY    67  63  87 SE8       29.90F
6HR MIN TEMP:  67; 6HR MAX TEMP:  71; 6HR PCP:  0.67;

HEBRON         CLOUDY    69  66  90 CALM      29.96R
HOLDREGE       CLOUDY    67  65  96 CALM      29.89F FOG
KEARNEY *      MOCLDY    64  64 100 E9        29.90F
YORK           CLOUDY    66 N/A N/A SE9       29.93F
$$

NEZ011>018-030>034-042>045-281300-
NORTHEAST NEBRASKA

CITY           SKY/WX    TMP DP  RH WIND       PRES   REMARKS
NORFOLK        CLOUDY    68  66  93 SE8       29.93F
6HR MIN TEMP:  68; 6HR MAX TEMP:  69; 6HR PCP:  0.49;

ALBION         CLOUDY    67  65  94 SE7       29.92F
BLAIR          TSTM      71  68  93 E5        29.97R
FREMONT        CLOUDY    71  68  93 E9        29.94S THUNDER
TEKAMAH        LGT RAIN  70  68  93 E8        29.95F
6HR MIN TEMP:  69; 6HR MAX TEMP:  70; 6HR PCP:  2.05;

WAYNE          RAIN      68  67  95 SE10      29.95F
$$

NEZ050>053-065>068-078-088>093-281300-
SOUTHEAST NEBRASKA

CITY           SKY/WX    TMP DP  RH WIND       PRES   REMARKS
LINCOLN        CLOUDY    71  69  93 CALM      29.96R
6HR MIN TEMP:  69; 6HR MAX TEMP:  73; 6HR PCP:  2.66;

OMAHA EPPLEY   TSTM      70  68  93 E8        29.95S FOG
6HR MIN TEMP:  70; 6HR MAX TEMP:  72; 6HR PCP:  1.22;

BEATRICE       TSTM      73  71  95 S6        29.95R
FALLS CITY     CLOUDY    73  72  96 SE6       29.95S
6HR MIN TEMP:  71; 6HR MAX TEMP:  73; 6HR PCP:  0.34;

NEBRASKA CITY  CLOUDY    70  70 100 N3        29.97R
PLATTSMOUTH    TSTM      70  68  93 E8        29.97R
$$

NEZ044-045-051>053-067-281300-
OMAHA AREA

CITY           SKY/WX    TMP DP  RH WIND       PRES   REMARKS
OMAHA EPPLEY   TSTM      70  68  93 E8        29.95S FOG
6HR MIN TEMP:  70; 6HR MAX TEMP:  72; 6HR PCP:  1.22;

BLAIR          TSTM      71  68  93 E5        29.97R
FREMONT        CLOUDY    71  68  93 E9        29.94S THUNDER
MILLARD        CLOUDY    71  69  93 W5G10     29.95R
OFFUTT AFB     LGT RAIN  70  70 100 E12       29.95S FOG
PLATTSMOUTH    TSTM      70  68  93 E8        29.97R
WAHOO          CLOUDY    69  66  90 E6        29.95S
$$



USA.gov is the U.S. government's official web portal to all federal, state and local government web resources and services.